• In Portugal
  • List of Countries
  • For 7 days
  • Water Temperature
  • Satellite Maps
  • Weather Map
  • Weather Widgets
  • user-avatar
    Login

    Hourly Weather Monte Carlo

    Today, 15 December, Friday

    Time Temperature Precipitation Wind Pressure Humidity
    00:00 +7°C° 0 mm 9 mps 741 mmHg 91%
    01:00 +6°C° 0 mm 9 mps 740 mmHg 90%
    02:00 +6°C° 0 mm 9 mps 740 mmHg 89%
    03:00 +6°C° 0 mm 8 mps 739 mmHg 88%
    04:00 +6°C° 0 mm 8 mps 739 mmHg 88%
    05:00 +6°C° 0 mm 8 mps 739 mmHg 87%
    06:00 +6°C° 0 mm 9 mps 738 mmHg 85%
    07:00 +7°C° 0 mm 9 mps 738 mmHg 80%
    08:00 +7°C° 0 mm 8 mps 738 mmHg 75%
    09:00 +9°C° 0 mm 8 mps 737 mmHg 70%
    10:00 +8°C° 0 mm 9 mps 737 mmHg 64%
    11:00 +10°C° 0 mm 9 mps 737 mmHg 59%
    12:00 +10°C° 0 mm 9 mps 737 mmHg 54%
    13:00 +8°C° 0 mm 10 mps 737 mmHg 55%
    14:00 +8°C° 0 mm 10 mps 737 mmHg 57%
    15:00 +7°C° 0 mm 11 mps 736 mmHg 59%
    16:00 +6°C° 0 mm 11 mps 737 mmHg 60%
    17:00 +3°C° 0 mm 11 mps 737 mmHg 62%
    18:00 +2°C° 0 mm 11 mps 737 mmHg 64%
    19:00 +2°C° 0 mm 10 mps 737 mmHg 63%
    20:00 +2°C° 0 mm 10 mps 738 mmHg 61%
    21:00 +1°C° 0 mm 10 mps 738 mmHg 60%
    22:00 +1°C° 0 mm 10 mps 738 mmHg 59%
    23:00 +1°C° 0 mm 10 mps 738 mmHg 59%

    Tomorrow, 16 December, Saturday

    Time Temperature Precipitation Wind Pressure Humidity
    00:00 +1°C° 0 mm 10 mps 738 mmHg 58%
    01:00 +1°C° 0 mm 10 mps 738 mmHg 59%
    02:00 +1°C° 0 mm 11 mps 739 mmHg 60%
    03:00 +1°C° 0 mm 11 mps 739 mmHg 61%
    04:00 +1°C° 0 mm 10 mps 739 mmHg 58%
    05:00 +1°C° 0 mm 9 mps 739 mmHg 56%
    06:00 +2°C° 0 mm 9 mps 739 mmHg 54%
    07:00 +2°C° 0 mm 8 mps 740 mmHg 51%
    08:00 +4°C° 0 mm 7 mps 740 mmHg 49%
    09:00 +4°C° 0 mm 7 mps 741 mmHg 46%
    10:00 +7°C° 0 mm 5 mps 741 mmHg 42%
    11:00 +8°C° 0 mm 4 mps 742 mmHg 38%
    12:00 +10°C° 0 mm 3 mps 742 mmHg 34%
    13:00 +10°C° 0 mm 3 mps 742 mmHg 38%
    14:00 +9°C° 0 mm 3 mps 743 mmHg 41%
    15:00 +9°C° 0 mm 2 mps 743 mmHg 45%
    16:00 +7°C° 0 mm 3 mps 744 mmHg 48%
    17:00 +5°C° 0 mm 3 mps 745 mmHg 52%
    18:00 +4°C° 0 mm 3 mps 745 mmHg 55%
    19:00 +3°C° 0 mm 3 mps 746 mmHg 53%
    20:00 +3°C° 0 mm 3 mps 746 mmHg 51%
    21:00 +3°C° 0 mm 3 mps 747 mmHg 48%
    22:00 +3°C° 0 mm 3 mps 747 mmHg 47%
    23:00 +3°C° 0 mm 3 mps 748 mmHg 45%

    Day after tomorrow, 17 December, Sunday

    Time Temperature Precipitation Wind Pressure Humidity
    00:00 +3°C° 0 mm 3 mps 748 mmHg 43%
    01:00 +3°C° 0 mm 3 mps 748 mmHg 41%
    02:00 +2°C° 0 mm 3 mps 748 mmHg 40%
    03:00 +2°C° 0 mm 3 mps 749 mmHg 38%
    04:00 +2°C° 0 mm 3 mps 749 mmHg 38%
    05:00 +2°C° 0 mm 3 mps 749 mmHg 37%
    06:00 +2°C° 0 mm 3 mps 750 mmHg 37%
    07:00 +3°C° 0 mm 3 mps 751 mmHg 35%
    08:00 +4°C° 0 mm 3 mps 751 mmHg 34%
    09:00 +5°C° 0 mm 3 mps 752 mmHg 32%
    10:00 +8°C° 0 mm 3 mps 752 mmHg 34%
    11:00 +9°C° 0 mm 2 mps 752 mmHg 35%
    12:00 +10°C° 0 mm 2 mps 752 mmHg 36%
    13:00 +9°C° 0 mm 2 mps 753 mmHg 41%
    14:00 +9°C° 0 mm 2 mps 753 mmHg 46%
    15:00 +8°C° 0 mm 2 mps 753 mmHg 51%
    16:00 +7°C° 0 mm 2 mps 754 mmHg 54%
    17:00 +5°C° 0 mm 2 mps 754 mmHg 57%
    18:00 +4°C° 0 mm 2 mps 755 mmHg 60%
    19:00 +4°C° 0 mm 2 mps 755 mmHg 60%
    20:00 +4°C° 0 mm 2 mps 756 mmHg 59%
    21:00 +3°C° 0 mm 2 mps 757 mmHg 58%
    22:00 +3°C° 0 mm 2 mps 757 mmHg 57%
    23:00 +3°C° 0 mm 2 mps 757 mmHg 56%

    18 December, Monday

    Time Temperature Precipitation Wind Pressure Humidity
    00:00 +2°C° 0 mm 3 mps 758 mmHg 55%
    01:00 +3°C° 0 mm 2 mps 757 mmHg 54%
    02:00 +3°C° 0 mm 2 mps 757 mmHg 53%
    03:00 +3°C° 0 mm 2 mps 757 mmHg 52%
    04:00 +3°C° 0 mm 2 mps 757 mmHg 51%
    05:00 +3°C° 0 mm 2 mps 757 mmHg 49%
    06:00 +3°C° 0 mm 2 mps 757 mmHg 48%
    07:00 +4°C° 0 mm 2 mps 757 mmHg 45%
    08:00 +6°C° 0 mm 2 mps 757 mmHg 41%
    09:00 +7°C° 0 mm 2 mps 757 mmHg 38%
    10:00 +8°C° 0 mm 3 mps 757 mmHg 37%
    11:00 +9°C° 0 mm 3 mps 756 mmHg 36%
    12:00 +10°C° 0 mm 4 mps 756 mmHg 36%
    13:00 +10°C° 0 mm 4 mps 755 mmHg 39%
    14:00 +8°C° 0 mm 5 mps 754 mmHg 43%
    15:00 +7°C° 0 mm 5 mps 754 mmHg 47%
    16:00 +6°C° 0 mm 5 mps 753 mmHg 51%
    17:00 +6°C° 0 mm 4 mps 753 mmHg 55%
    18:00 +5°C° 0 mm 4 mps 752 mmHg 60%
    19:00 +5°C° 0 mm 4 mps 752 mmHg 61%
    20:00 +5°C° 0 mm 3 mps 752 mmHg 62%
    21:00 +5°C° 0 mm 3 mps 752 mmHg 63%
    22:00 +4°C° 0 mm 3 mps 752 mmHg 63%
    23:00 +4°C° 0 mm 4 mps 752 mmHg 62%

    19 December, Tuesday

    Time Temperature Precipitation Wind Pressure Humidity
    00:00 +3°C° 0 mm 5 mps 752 mmHg 62%
    01:00 +3°C° 0 mm 5 mps 753 mmHg 61%
    02:00 +3°C° 0 mm 6 mps 754 mmHg 60%
    03:00 +3°C° 0 mm 6 mps 754 mmHg 59%
    04:00 +3°C° 0 mm 7 mps 755 mmHg 59%
    05:00 +3°C° 0 mm 7 mps 756 mmHg 59%
    06:00 +2°C° 0 mm 8 mps 757 mmHg 59%
    07:00 +4°C° 0 mm 7 mps 757 mmHg 54%
    08:00 +5°C° 0 mm 7 mps 758 mmHg 48%
    09:00 +7°C° 0 mm 6 mps 759 mmHg 43%
    10:00 +8°C° 0 mm 6 mps 759 mmHg 40%
    11:00 +10°C° 0 mm 5 mps 758 mmHg 37%
    12:00 +12°C° 0 mm 4 mps 758 mmHg 35%
    13:00 +11°C° 0 mm 4 mps 758 mmHg 42%
    14:00 +10°C° 0 mm 3 mps 758 mmHg 49%
    15:00 +9°C° 0 mm 3 mps 758 mmHg 56%
    16:00 +8°C° 0 mm 2 mps 758 mmHg 57%
    17:00 +6°C° 0 mm 2 mps 758 mmHg 59%
    18:00 +5°C° 0 mm 2 mps 759 mmHg 60%
    19:00 +5°C° 0 mm 2 mps 759 mmHg 56%
    20:00 +5°C° 0 mm 2 mps 759 mmHg 53%
    21:00 +5°C° 0 mm 2 mps 759 mmHg 49%
    22:00 +5°C° 0 mm 2 mps 759 mmHg 48%
    23:00 +5°C° 0 mm 2 mps 759 mmHg 47%

    20 December, Wednesday

    Time Temperature Precipitation Wind Pressure Humidity
    00:00 +5°C° 0 mm 2 mps 759 mmHg 45%
    01:00 +6°C° 0 mm 2 mps 759 mmHg 44%
    02:00 +6°C° 0 mm 2 mps 759 mmHg 43%
    03:00 +6°C° 0 mm 2 mps 759 mmHg 41%
    04:00 +6°C° 0 mm 2 mps 759 mmHg 40%
    05:00 +6°C° 0 mm 2 mps 759 mmHg 40%
    06:00 +6°C° 0 mm 2 mps 759 mmHg 39%
    07:00 +8°C° 0 mm 1 mps 759 mmHg 37%
    08:00 +9°C° 0 mm 1 mps 759 mmHg 36%
    09:00 +11°C° 0 mm 1 mps 760 mmHg 35%
    10:00 +12°C° 0 mm 1 mps 760 mmHg 35%
    11:00 +13°C° 0 mm 1 mps 759 mmHg 35%
    12:00 +14°C° 0 mm 1 mps 759 mmHg 36%
    13:00 +14°C° 0 mm 1 mps 759 mmHg 41%
    14:00 +13°C° 0 mm 2 mps 759 mmHg 47%
    15:00 +12°C° 0 mm 2 mps 759 mmHg 53%
    16:00 +10°C° 0 mm 2 mps 759 mmHg 55%
    17:00 +9°C° 0 mm 2 mps 760 mmHg 57%
    18:00 +8°C° 0 mm 2 mps 760 mmHg 59%
    19:00 +8°C° 0 mm 2 mps 760 mmHg 58%
    20:00 +8°C° 0 mm 2 mps 760 mmHg 57%
    21:00 +8°C° 0 mm 2 mps 761 mmHg 56%
    22:00 +9°C° 0 mm 1 mps 761 mmHg 56%
    23:00 +9°C° 0 mm 1 mps 761 mmHg 55%
    Show more